TimeCEST,TemperatureF,Dew PointF,Humidity,Sea Level PressureIn,VisibilityMPH,Wind Direction,Wind SpeedMPH,Gust SpeedMPH,PrecipitationIn,Events,Conditions,WindDirDegrees,DateUTC
12:25 AM,51.8,48.2,88,30.01,6.2,SSE,3.5,-,N/A,,Unknown,160,2013-04-25 22:25:00
12:55 AM,50.0,46.4,87,30.01,6.2,South,3.5,-,N/A,,Partly Cloudy,170,2013-04-25 22:55:00
1:25 AM,51.8,48.2,88,29.98,6.2,SSE,3.5,-,N/A,,Unknown,160,2013-04-25 23:25:00
1:55 AM,50.0,46.4,87,29.98,6.2,Calm,Calm,-,N/A,,Partly Cloudy,0,2013-04-25 23:55:00
2:25 AM,50.0,48.2,94,29.95,6.2,Calm,Calm,-,N/A,,Unknown,0,2013-04-26 00:25:00
2:39 AM,50.0,46.4,87,29.95,4.3,WNW,1.2,-,N/A,,Mist,290,2013-04-26 00:39:00
2:43 AM,48.2,44.6,87,29.95,5.6,West,2.3,-,N/A,,Mist,270,2013-04-26 00:43:00
2:55 AM,50.0,48.2,94,29.95,5.6,WSW,5.8,-,N/A,,Mist,250,2013-04-26 00:55:00
3:04 AM,51.8,50.0,94,29.95,4.3,WSW,4.6,-,N/A,,Mist,240,2013-04-26 01:04:00
3:05 AM,53.6,50.0,88,29.95,5.0,SW,4.6,-,N/A,,Mist,230,2013-04-26 01:05:00
3:14 AM,53.6,50.0,88,29.95,4.3,SW,4.6,-,N/A,,Mist,230,2013-04-26 01:14:00
3:25 AM,50.0,48.2,94,29.95,4.3,SW,3.5,-,N/A,,Mist,230,2013-04-26 01:25:00
3:51 AM,48.2,46.4,93,29.95,5.0,SW,1.2,-,N/A,,Overcast,220,2013-04-26 01:51:00
3:55 AM,48.2,46.4,93,29.92,3.7,SW,2.3,-,N/A,,Overcast,220,2013-04-26 01:55:00
4:00 AM,50.0,48.2,94,29.92,5.0,SSW,2.3,-,N/A,,Overcast,210,2013-04-26 02:00:00
4:13 AM,51.8,48.2,88,29.92,5.6,SW,4.6,-,N/A,,Overcast,230,2013-04-26 02:13:00
4:25 AM,53.6,48.2,82,29.92,5.6,SW,6.9,-,N/A,,Overcast,230,2013-04-26 02:25:00
4:34 AM,53.6,48.2,82,29.92,4.3,WSW,10.4,-,N/A,,Overcast,240,2013-04-26 02:34:00
4:39 AM,53.6,48.2,82,29.92,5.0,WSW,9.2,-,N/A,,Overcast,240,2013-04-26 02:39:00
4:40 AM,53.6,48.2,82,29.92,4.3,WSW,8.1,-,N/A,,Overcast,240,2013-04-26 02:40:00
4:55 AM,51.8,48.2,88,29.92,3.7,WSW,5.8,-,N/A,,Mostly Cloudy,250,2013-04-26 02:55:00
5:25 AM,51.8,46.4,82,29.89,3.7,WSW,4.6,-,N/A,,Mostly Cloudy,250,2013-04-26 03:25:00
5:55 AM,50.0,46.4,87,29.89,3.1,WSW,3.5,-,N/A,,Overcast,250,2013-04-26 03:55:00
6:02 AM,50.0,46.4,87,29.89,-9999.0,WSW,3.5,-,N/A,,Overcast,250,2013-04-26 04:02:00
6:06 AM,48.2,46.4,93,29.89,3.1,West,3.5,-,N/A,,Overcast,270,2013-04-26 04:06:00
6:10 AM,50.0,46.4,87,29.89,-9999.0,West,4.6,-,N/A,,Mostly Cloudy,280,2013-04-26 04:10:00
6:16 AM,50.0,48.2,94,29.89,3.1,WNW,4.6,-,N/A,,Mostly Cloudy,290,2013-04-26 04:16:00
6:17 AM,50.0,46.4,87,29.89,-9999.0,WNW,4.6,-,N/A,,Mostly Cloudy,290,2013-04-26 04:17:00
6:25 AM,50.0,46.4,87,29.89,-9999.0,WNW,4.6,-,N/A,,Mostly Cloudy,300,2013-04-26 04:25:00
6:55 AM,50.0,46.4,87,29.89,2.8,North,3.5,-,N/A,,Mostly Cloudy,350,2013-04-26 04:55:00
7:25 AM,50.0,46.4,87,29.89,-9999.0,North,6.9,-,N/A,,Mostly Cloudy,350,2013-04-26 05:25:00
7:27 AM,50.0,46.4,87,29.86,-9999.0,North,6.9,-,N/A,,Mostly Cloudy,360,2013-04-26 05:27:00
7:44 AM,50.0,48.2,94,29.89,-9999.0,North,6.9,-,N/A,,Mostly Cloudy,360,2013-04-26 05:44:00
7:51 AM,50.0,48.2,94,29.89,-9999.0,North,8.1,-,N/A,,Overcast,10,2013-04-26 05:51:00
7:55 AM,50.0,48.2,94,29.86,-9999.0,North,9.2,-,N/A,,Overcast,10,2013-04-26 05:55:00
8:25 AM,50.0,48.2,94,29.86,-9999.0,North,9.2,-,N/A,,Overcast,10,2013-04-26 06:25:00
8:29 AM,50.0,48.2,94,29.89,1.9,North,6.9,-,N/A,,Overcast,10,2013-04-26 06:29:00
8:55 AM,50.0,48.2,94,29.86,-9999.0,NNE,10.4,-,N/A,,Overcast,20,2013-04-26 06:55:00
9:25 AM,50.0,48.2,94,29.89,1.8,NNW,6.9,-,N/A,Rain,Light Rain,340,2013-04-26 07:25:00
9:55 AM,50.0,48.2,94,29.86,1.8,NNE,6.9,-,N/A,Rain,Light Rain,20,2013-04-26 07:55:00
10:25 AM,50.0,48.2,94,29.86,1.9,North,8.1,-,N/A,,Overcast,10,2013-04-26 08:25:00
10:38 AM,50.0,48.2,94,29.86,-9999.0,North,5.8,-,N/A,Rain,Light Rain,10,2013-04-26 08:38:00
10:55 AM,48.2,48.2,100,29.86,1.7,North,8.1,-,N/A,Rain,Rain Showers,10,2013-04-26 08:55:00
11:25 AM,50.0,48.2,94,29.86,-9999.0,North,8.1,-,N/A,Rain,Light Rain,10,2013-04-26 09:25:00
11:29 AM,48.2,48.2,100,29.86,2.8,North,8.1,-,N/A,Rain,Light Rain,360,2013-04-26 09:29:00
11:42 AM,48.2,48.2,100,29.86,3.1,North,9.2,-,N/A,Rain,Light Rain,350,2013-04-26 09:42:00
11:46 AM,48.2,46.4,93,29.86,3.7,North,9.2,-,N/A,Rain,Light Rain,350,2013-04-26 09:46:00
11:50 AM,48.2,46.4,93,29.86,3.7,North,9.2,-,N/A,Rain,Light Rain,360,2013-04-26 09:50:00
11:55 AM,48.2,46.4,93,29.86,4.3,North,9.2,-,N/A,Rain,Light Rain,350,2013-04-26 09:55:00
11:58 AM,48.2,46.4,93,29.86,4.3,NNW,9.2,-,N/A,Rain,Light Rain,340,2013-04-26 09:58:00
12:13 PM,46.4,44.6,93,29.86,-9999.0,NNW,10.4,-,N/A,Rain,Light Rain,340,2013-04-26 10:13:00
12:25 PM,46.4,44.6,93,29.86,3.7,North,10.4,-,N/A,Rain,Light Rain,350,2013-04-26 10:25:00
12:38 PM,46.4,44.6,93,29.86,3.7,North,10.4,-,N/A,Rain,Rain,350,2013-04-26 10:38:00
12:42 PM,46.4,44.6,93,29.86,3.7,NNW,11.5,-,N/A,Rain,Light Rain,340,2013-04-26 10:42:00
12:55 PM,46.4,44.6,93,29.86,5.6,North,11.5,-,N/A,Rain,Light Rain,350,2013-04-26 10:55:00
12:59 PM,46.4,44.6,93,29.86,6.2,North,11.5,-,N/A,Rain,Light Rain,350,2013-04-26 10:59:00
1:09 PM,44.6,42.8,93,29.86,6.2,North,11.5,-,N/A,Rain,Light Rain,350,2013-04-26 11:09:00
1:19 PM,44.6,42.8,93,29.86,6.2,North,12.7,-,N/A,,Light Drizzle,360,2013-04-26 11:19:00
1:25 PM,44.6,42.8,93,29.83,6.2,North,13.8,-,N/A,,Drizzle,360,2013-04-26 11:25:00
1:30 PM,44.6,42.8,93,29.86,6.2,North,12.7,-,N/A,,Light Drizzle,360,2013-04-26 11:30:00
1:55 PM,44.6,42.8,93,29.86,6.2,North,10.4,-,N/A,,Mostly Cloudy,360,2013-04-26 11:55:00
2:09 PM,44.6,42.8,93,29.86,6.2,North,11.5,-,N/A,,Light Drizzle,350,2013-04-26 12:09:00
2:15 PM,44.6,42.8,93,29.86,6.2,North,10.4,-,N/A,,Overcast,350,2013-04-26 12:15:00
2:16 PM,44.6,41.0,87,29.86,6.2,North,11.5,-,N/A,,Overcast,360,2013-04-26 12:16:00
2:25 PM,44.6,41.0,87,29.86,6.2,North,11.5,-,N/A,,Overcast,10,2013-04-26 12:25:00
2:33 PM,44.6,41.0,87,29.86,6.2,North,11.5,-,N/A,,Overcast,10,2013-04-26 12:33:00
2:47 PM,44.6,41.0,87,29.86,6.2,North,10.4,-,N/A,Rain,Light Rain,10,2013-04-26 12:47:00
2:55 PM,44.6,41.0,87,29.86,6.2,North,9.2,-,N/A,Rain,Light Rain,10,2013-04-26 12:55:00
3:20 PM,44.6,41.0,87,29.86,6.2,North,8.1,-,N/A,,Overcast,360,2013-04-26 13:20:00
3:25 PM,44.6,41.0,87,29.86,6.2,North,9.2,-,N/A,Rain,Light Rain,350,2013-04-26 13:25:00
3:29 PM,44.6,41.0,87,29.86,5.0,North,10.4,-,N/A,Rain,Light Rain,350,2013-04-26 13:29:00
3:31 PM,44.6,41.0,87,29.86,3.7,North,9.2,-,N/A,Rain,Light Rain,360,2013-04-26 13:31:00
3:32 PM,44.6,42.8,93,29.86,3.7,North,9.2,-,N/A,Rain,Light Rain,360,2013-04-26 13:32:00
3:42 PM,44.6,41.0,87,29.86,-9999.0,North,8.1,-,N/A,Rain,Light Rain,360,2013-04-26 13:42:00
3:45 PM,44.6,41.0,87,29.89,4.3,North,6.9,-,N/A,Rain,Light Rain,350,2013-04-26 13:45:00
3:55 PM,44.6,42.8,93,29.86,6.2,North,5.8,-,N/A,Rain,Light Rain,350,2013-04-26 13:55:00
4:01 PM,44.6,42.8,93,29.86,6.2,NNW,6.9,-,N/A,Rain,Light Rain,340,2013-04-26 14:01:00
4:17 PM,44.6,41.0,87,29.86,6.2,NNW,8.1,-,N/A,Rain,Light Rain Showers,340,2013-04-26 14:17:00
4:21 PM,44.6,42.8,93,29.86,6.2,NNW,8.1,-,N/A,Rain,Light Rain,340,2013-04-26 14:21:00
4:25 PM,44.6,42.8,93,29.86,6.2,North,6.9,-,N/A,Rain,Light Rain,350,2013-04-26 14:25:00
4:28 PM,44.6,41.0,87,29.86,6.2,North,6.9,-,N/A,Rain,Light Rain,350,2013-04-26 14:28:00
4:30 PM,44.6,41.0,87,29.86,6.2,NNW,8.1,-,N/A,Rain,Light Rain,340,2013-04-26 14:30:00
4:55 PM,44.6,41.0,87,29.86,6.2,NNW,8.1,-,N/A,Rain,Light Rain,340,2013-04-26 14:55:00
4:56 PM,44.6,41.0,87,29.86,6.2,NNW,8.1,-,N/A,Rain,Drizzle,340,2013-04-26 14:56:00
5:01 PM,44.6,41.0,87,29.86,6.2,NNW,6.9,-,N/A,,Drizzle,340,2013-04-26 15:01:00
5:05 PM,44.6,41.0,87,29.86,6.2,NNW,6.9,-,N/A,,Drizzle,340,2013-04-26 15:05:00
5:25 PM,42.8,41.0,93,29.86,6.2,NNW,8.1,-,N/A,Rain,Light Rain Showers,340,2013-04-26 15:25:00
5:32 PM,42.8,41.0,93,29.86,6.2,NNW,8.1,-,N/A,Rain,Light Rain,330,2013-04-26 15:32:00
5:34 PM,42.8,41.0,93,29.86,6.2,NNW,6.9,-,N/A,Rain,Light Rain,330,2013-04-26 15:34:00
5:38 PM,42.8,41.0,93,29.86,6.2,NNW,6.9,-,N/A,Rain,Light Rain,340,2013-04-26 15:38:00
5:55 PM,44.6,41.0,87,29.86,6.2,NNW,4.6,-,N/A,Rain,Light Rain,340,2013-04-26 15:55:00
5:58 PM,44.6,41.0,87,29.86,6.2,NNW,4.6,-,N/A,Rain,Light Rain,340,2013-04-26 15:58:00
6:01 PM,44.6,41.0,87,29.86,6.2,NNW,3.5,-,N/A,Rain,Light Rain,340,2013-04-26 16:01:00
6:10 PM,44.6,41.0,87,29.86,6.2,NNW,4.6,-,N/A,,Light Drizzle,340,2013-04-26 16:10:00
6:15 PM,44.6,41.0,87,29.86,6.2,NNW,5.8,-,N/A,,Light Drizzle,340,2013-04-26 16:15:00
6:25 PM,44.6,41.0,87,29.86,6.2,NNW,5.8,-,N/A,,Light Drizzle,340,2013-04-26 16:25:00
6:27 PM,44.6,41.0,87,29.86,6.2,NNW,3.5,-,N/A,,Light Drizzle,330,2013-04-26 16:27:00
6:31 PM,44.6,41.0,87,29.86,6.2,NW,3.5,-,N/A,,Mostly Cloudy,320,2013-04-26 16:31:00
6:41 PM,44.6,41.0,87,29.86,6.2,NNW,3.5,-,N/A,,Mostly Cloudy,330,2013-04-26 16:41:00
6:45 PM,44.6,41.0,87,29.86,6.2,NNW,5.8,-,N/A,,Mostly Cloudy,330,2013-04-26 16:45:00
6:55 PM,44.6,41.0,87,29.86,6.2,NNW,5.8,-,N/A,,Mostly Cloudy,330,2013-04-26 16:55:00
7:04 PM,44.6,41.0,87,29.86,6.2,NNW,4.6,-,N/A,,Mostly Cloudy,330,2013-04-26 17:04:00
7:08 PM,44.6,41.0,87,29.86,6.2,NNW,3.5,-,N/A,,Mostly Cloudy,330,2013-04-26 17:08:00
7:14 PM,44.6,41.0,87,29.86,6.2,NW,3.5,-,N/A,,Mostly Cloudy,320,2013-04-26 17:14:00
7:18 PM,44.6,41.0,87,29.86,6.2,NW,4.6,-,N/A,,Mostly Cloudy,320,2013-04-26 17:18:00
7:25 PM,44.6,41.0,87,29.86,6.2,NW,5.8,-,N/A,,Overcast,320,2013-04-26 17:25:00
7:50 PM,44.6,41.0,87,29.86,6.2,NNW,4.6,-,N/A,,Mostly Cloudy,330,2013-04-26 17:50:00
7:55 PM,44.6,41.0,87,29.86,6.2,NW,4.6,-,N/A,,Mostly Cloudy,320,2013-04-26 17:55:00
7:59 PM,44.6,41.0,87,29.86,6.2,NW,4.6,-,N/A,,Overcast,320,2013-04-26 17:59:00
8:10 PM,44.6,41.0,87,29.86,6.2,NNW,4.6,-,N/A,,Overcast,330,2013-04-26 18:10:00
8:15 PM,44.6,41.0,87,29.86,6.2,NNW,3.5,-,N/A,,Overcast,340,2013-04-26 18:15:00
8:25 PM,44.6,41.0,87,29.86,6.2,NNW,5.8,-,N/A,,Overcast,340,2013-04-26 18:25:00
8:26 PM,44.6,41.0,87,29.86,6.2,North,5.8,-,N/A,,Overcast,350,2013-04-26 18:26:00
8:55 PM,42.8,39.2,87,29.86,6.2,NNW,5.8,-,N/A,,Overcast,340,2013-04-26 18:55:00
9:25 PM,42.8,39.2,87,29.86,6.2,NNW,2.3,-,N/A,,Overcast,330,2013-04-26 19:25:00
9:55 PM,42.8,39.2,87,29.86,6.2,NW,4.6,-,N/A,,Overcast,310,2013-04-26 19:55:00
10:25 PM,42.8,39.2,87,29.89,6.2,NW,3.5,-,N/A,,Overcast,310,2013-04-26 20:25:00
10:55 PM,41.0,39.2,93,29.86,6.2,NW,3.5,-,N/A,,Overcast,320,2013-04-26 20:55:00
11:25 PM,41.0,37.4,87,29.86,6.2,NW,4.6,-,N/A,,Overcast,310,2013-04-26 21:25:00
11:55 PM,39.2,37.4,93,29.86,6.2,NW,4.6,-,N/A,,Overcast,310,2013-04-26 21:55:00